Location: Le Castellard
(44.1862°N, 6.1301°E)
Time: 21:58:33
(UTC+00:00)

Cosmos 1758 - Pass Details

Date: 18 January 2020
Orbit: 540 x 562 km, 82.5° (Epoch: 25 February)

Event Time Altitude Azimuth Distance (km) Brightness Sun altitude
Rises 05:09:51 0° 196° (SSW) 2,715 6.8 -20.5°
Reaches altitude 10° 05:12:02 10° 201° (SSW) 1,822 5.8 -20.1°
Maximum altitude 05:15:59 58° 281° (W) 645 3.3 -19.4°
Drops below altitude 10° 05:19:57 10° 1° (N) 1,825 5.9 -18.7°
Sets 05:22:08 0° 5° (N) 2,720 6.8 -18.3°
